Location: Latina
(41.4670°N, 12.8670°E)
Time: 16:37:44
(UTC+02:00)

ISS - Pass Details

Date: 18 May 2021
Orbit: 417 x 422 km, 51.6° (Epoch: 18 June)

Event Time Altitude Azimuth Distance (km) Brightness Sun altitude
Rises 21:14:34 0° 246° (WSW) 2,352 0.5 -8.9°
Reaches altitude 10° 21:16:42 10° 252° (WSW) 1,493 -0.4 -9.2°
Maximum altitude 21:19:58 50° 329° (NNW) 541 -2.7 -9.7°
Drops below altitude 10° 21:23:16 10° 47° (NE) 1,503 -1.0 -10.2°
Sets 21:25:25 0° 52° (NE) 2,370 -0.1 -10.5°
